Satellite: NANOSALD
Catalog number: 37361
Epoch time:      11089.51706244
Element set:    0111
Inclination:      071.9685 deg
RA of node:       211.9413 deg
Eccentricity:    0.0022351
Arg of perigee:   010.5692 deg
Mean anomaly:     349.6865 deg
Mean motion:   14.84084543 rev/day
Decay rate:     9.5440e-04 rev/day^2
Epoch rev:           01038
Checksum:              287

Satellite: FAST2
Catalog number: 37380
Epoch time:      11097.33137147
Element set:    0132
Inclination:      071.9755 deg
RA of node:       195.5127 deg
Eccentricity:    0.0016197
Arg of perigee:   046.7229 deg
Mean anomaly:     313.5218 deg
Mean motion:   14.76312216 rev/day
Decay rate:       2.05e-06 rev/day^2
Epoch rev:           02040
Checksum:              272

/EX
SB KEPS @ AMSAT  $ORB11097.W
Orbital Elements  11097.WEATHER

HR AMSAT ORBITAL ELEMENTS FOR WEATHER SATELLITES
FROM WA5QGD FORT WORTH,TX April 7, 2011
Send Subscribe/unsubscribe to KEPS at http://www.amsat.org/mailman/listinfo/kep
BID: ORB11097.W
TO ALL RADIO AMATEURS BT

Satellite: NOAA-10
Catalog number: 16969
Epoch time:      11096.92385807
Element set:    0457
Inclination:      098.6252 deg
RA of node:       127.6586 deg
Eccentricity:    0.0013157
Arg of perigee:   075.1154 deg
Mean anomaly:     285.1474 deg
Mean motion:   14.27451750 rev/day
Decay rate:      .00000000 rev/day^2
Epoch rev:           27748
Checksum:              312

Satellite: NOAA-11
Catalog number: 19531
Epoch time:      11096.63665410
Element set:    0462
Inclination:      098.7515 deg
RA of node:       185.4532 deg
Eccentricity:    0.0011739
Arg of perigee:   036.1937 deg
Mean anomaly:     324.0033 deg
Mean motion:   14.14910868 rev/day
Decay rate:       2.39e-06 rev/day^2
Epoch rev:           16263
Checksum:              293

Satellite: NOAA-12
Catalog number: 21263
Epoch time:      11096.92386731
Element set:    0971
Inclination:      098.7542 deg
RA of node:       114.8837 deg
Eccentricity:    0.0013120
Arg of perigee:   037.5342 deg
Mean anomaly:     322.6749 deg
Mean motion:   14.25697770 rev/day
Decay rate:       1.56e-06 rev/day^2
Epoch rev:           03425
Checksum:              305

Satellite: MET-3/5
Catalog number: 21655
Epoch time:      11096.87537069
Element set:    0081
Inclination:      082.5528 deg
RA of node:       101.1606 deg
Eccentricity:    0.0013238
Arg of perigee:   341.1692 deg
Mean anomaly:     018.8927 deg
Mean motion:   13.17029530 rev/day
Decay rate:        5.1e-07 rev/day^2
Epoch rev:           94433
Checksum:              292

Satellite: MET-2/21
Catalog number: 22782
Epoch time:      11096.88354641
Element set:    0063
Inclination:      082.5513 deg
RA of node:       019.4474 deg
Eccentricity:    0.0021193
Arg of perigee:   301.7537 deg
Mean anomaly:     058.1561 deg
Mean motion:   13.83657123 rev/day
Decay rate:        1.1e-07 rev/day^2
Epoch rev:           88869
Checksum:              303

Satellite: OKEAN-4
Catalog number: 23317
Epoch time:      11096.98330345
Element set:    0525
Inclination:      082.5368 deg
RA of node:       079.6200 deg
Eccentricity:    0.0022404
Arg of perigee:   358.6030 deg
Mean anomaly:     001.5117 deg
Mean motion:   14.82998233 rev/day
Decay rate:      1.447e-05 rev/day^2
Epoch rev:           88999
Checksum:              309

Satellite: NOAA-14
Catalog number: 23455
Epoch time:      11096.91190111
Element set:    0459
Inclination:      098.8521 deg
RA of node:       180.2517 deg
Eccentricity:    0.0010051
Arg of perigee:   118.6982 deg
Mean anomaly:     241.5202 deg
Mean motion:   14.13812209 rev/day
Decay rate:        5.1e-07 rev/day^2
Epoch rev:           83900
Checksum:              265

Satellite: NOAA-15
Catalog number: 25338
Epoch time:      11096.82195608
Element set:    0770
Inclination:      098.6507 deg
RA of node:       083.9608 deg
Eccentricity:    0.0009829
Arg of perigee:   303.5206 deg
Mean anomaly:     056.5008 deg
Mean motion:   14.24897527 rev/day
Decay rate:       1.36e-06 rev/day^2
Epoch rev:           67056
Checksum:              330

Satellite: RESURS
Catalog number: 25394
Epoch time:      11097.92418255
Element set:     765
Inclination:      098.3016 deg
RA of node:       104.8187 deg
Eccentricity:    0.0002425
Arg of perigee:   074.2143 deg
Mean anomaly:     285.9307 deg
Mean motion:   14.24228239 rev/day
Decay rate:        4.3e-07 rev/day^2
Epoch rev:           66230
Checksum:              290

Satellite: FENGYUN1
Catalog number: 25730
Epoch time:      11096.92659498
Element set:    0301
Inclination:      098.8141 deg
RA of node:       059.7014 deg
Eccentricity:    0.0023183
Arg of perigee:   147.7791 deg
Mean anomaly:     212.4794 deg
Mean motion:   14.08571302 rev/day
Decay rate:      1.211e-05 rev/day^2
Epoch rev:           61303
Checksum:              287

Satellite: OKEAN-0
Catalog number: 25860
Epoch time:      11096.94079695
Element set:    0275
Inclination:      097.8761 deg
RA of node:       065.3781 deg
Eccentricity:    0.0000690
Arg of perigee:   079.8992 deg
Mean anomaly:     280.2292 deg
Mean motion:   14.73744927 rev/day
Decay rate:       6.08e-06 rev/day^2
Epoch rev:           63016
Checksum:              341

